Wind_Speed
9 8 8 6 5 5 6 4 9 11 10 10 9 9 11 12 12 10 10 10 9 9 8 8 7 6 5 5 4 3 2 2 1 1 0 1 2 2 2 3 3 2 2 2 2 2 2 2 2
8 8 7 6 5 9 7 5 11 12 13 11 10 10 11 12 12 11 11 12 10 10 9 9 8 7 6 6 5 4 3 3 2 1 1 1 1 2 2 3 3 2 2 2 2 1 1 1 1
8 7 6 4 4 6 8 10 15 14 13 11 11 11 12 11 12 12 12 12 11 11 10 9 9 8 7 7 6 5 4 3 3 2 2 1 1 2 2 3 3 3 3 3 2 2 1 1 1
8 7 5 4 4 4 10 14 15 13 12 12 13 13 11 11 12 13 12 12 12 12 11 11 10 9 8 7 7 6 6 5 4 3 3 2 2 2 3 3 3 3 3 3 3 3 3 3 3
7 5 4 5 6 8 14 16 13 13 14 14 15 14 12 11 12 12 13 14 14 13 12 11 11 10 9 8 8 7 7 6 5 5 4 4 3 3 3 3 4 4 4 4 4 3 4 4 4
5 3 6 8 7 12 17 17 13 14 14 15 16 16 13 12 13 13 14 15 15 13 13 12 11 11 10 9 9 8 8 7 7 6 5 5 5 4 4 4 4 4 4 4 4 4 4 5 5
5 3 4 6 9 13 18 17 14 15 16 16 17 18 16 14 14 14 15 16 16 15 14 14 13 12 11 10 10 10 9 9 8 8 7 6 5 6 5 5 5 5 6 6 6 6 6 6 6
4 3 4 3 8 12 18 18 16 15 17 16 18 20 19 14 15 15 16 17 17 17 16 15 15 14 13 12 11 11 11 10 10 9 8 7 6 6 6 5 5 5 6 6 7 7 7 7 7
3 3 4 4 8 11 16 17 16 17 18 17 19 20 19 15 15 16 17 18 18 18 18 17 16 15 15 14 12 12 12 12 11 10 8 7 7 6 7 6 6 6 6 6 6 7 7 8 8
2 1 4 11 13 13 15 16 16 17 18 20 18 19 16 15 16 17 17 19 20 19 19 18 17 17 16 15 15 13 13 12 12 11 10 8 7 7 7 6 5 5 6 6 6 6 6 6 7
4 4 8 11 12 13 14 14 16 17 20 20 19 20 16 15 17 18 18 19 21 21 21 20 20 20 18 17 16 15 14 14 13 11 9 8 7 7 7 6 5 5 5 5 6 6 6 6 6
8 7 10 11 12 12 14 15 16 17 20 20 20 21 19 19 19 20 21 21 22 23 23 22 21 20 19 18 18 17 15 14 12 10 9 7 7 6 6 5 5 5 5 5 5 5 5 5 6
9 9 11 12 13 15 16 17 18 18 19 20 20 22 21 22 22 22 23 23 24 24 24 23 22 21 20 19 18 17 16 14 12 10 9 8 8 6 5 5 4 4 4 5 4 4 5 4 5
7 9 10 12 14 17 19 20 20 19 19 20 20 21 21 21 23 23 23 23 24 24 24 22 22 22 21 20 18 17 16 14 12 11 9 8 7 6 6 5 4 4 5 5 5 5 4 4 4
7 10 11 13 15 19 21 21 21 20 19 19 18 18 18 18 20 21 23 23 24 24 24 24 24 23 22 21 19 18 16 15 12 11 10 9 8 7 5 4 4 5 5 5 5 5 4 4 5
7 11 15 15 16 19 21 21 21 20 20 19 16 15 15 15 16 18 20 22 23 25 25 25 25 24 22 20 19 18 17 15 13 11 10 9 8 6 5 4 4 4 4 5 5 5 5 5 5
10 13 15 15 17 20 21 20 21 19 19 17 16 15 13 13 14 16 18 19 21 23 24 24 24 23 20 19 19 17 16 15 13 11 9 8 7 6 5 3 3 4 4 5 5 5 5 5 5
10 12 14 16 19 20 21 19 19 18 19 17 16 14 13 12 12 15 17 19 20 20 21 21 22 21 20 18 17 15 14 14 12 11 9 7 6 5 4 3 3 4 4 4 4 5 5 5 5
9 10 14 16 16 18 19 18 18 18 17 16 16 14 13 10 10 12 15 17 18 19 19 19 19 18 17 18 17 15 14 13 11 10 8 7 6 5 4 4 3 3 3 4 4 5 5 6 6
10 12 15 16 16 16 16 15 15 16 16 17 16 15 13 9 9 9 11 14 15 16 17 18 18 17 17 17 17 15 14 11 9 8 7 7 6 5 4 3 3 3 3 3 4 5 6 6 7
12 14 14 15 16 14 14 15 15 16 15 16 16 14 11 8 7 6 9 12 13 14 14 15 16 16 16 16 16 14 12 10 9 8 8 7 6 5 4 3 3 3 3 3 4 5 6 7 8
14 14 14 14 13 13 13 14 14 17 15 15 15 13 12 8 6 4 6 8 10 12 13 13 14 15 15 14 13 12 11 10 9 9 8 7 6 6 4 3 3 2 2 3 4 5 6 7 8
15 13 13 11 13 14 11 11 12 16 16 14 14 13 11 9 6 3 2 6 8 10 11 12 12 13 13 13 13 12 11 10 10 9 8 8 7 5 4 3 3 3 3 4 5 6 7 8 9
14 12 11 13 15 16 7 8 11 15 15 13 13 11 11 9 7 4 0 5 7 8 10 10 11 11 11 11 11 11 10 10 10 9 9 8 7 6 5 5 4 4 4 5 6 7 8 9 10
13 12 12 15 17 12 4 5 10 13 13 13 12 11 10 9 8 5 3 4 7 7 8 9 10 10 9 10 10 11 11 10 10 10 9 9 8 7 7 6 6 6 6 7 8 9 10 11 12
14 13 13 17 16 16 11 9 8 10 11 11 11 9 8 7 6 5 3 1 5 6 8 9 9 9 10 10 10 11 12 11 10 10 9 9 9 8 8 8 8 8 9 9 10 11 12 13 14
15 14 13 16 15 16 16 10 6 8 11 10 10 9 8 6 5 5 4 2 2 4 6 7 8 9 10 11 11 11 12 11 10 10 10 10 10 10 10 10 10 11 11 12 13 14 15 16 17
16 16 15 15 15 15 14 12 11 8 8 11 12 10 8 6 4 3 2 1 1 2 3 6 7 9 10 11 11 11 11 11 11 12 12 12 12 12 13 13 13 14 15 16 16 17 18 18 19
17 17 17 15 15 15 16 18 15 11 9 10 12 11 9 7 5 4 4 3 3 3 4 5 6 8 9 10 11 11 12 12 12 12 13 13 14 15 15 16 16 17 18 19 19 20 21 21 22
20 18 18 18 16 15 14 18 13 9 10 12 13 12 10 9 8 7 6 6 5 5 5 6 7 8 9 11 12 13 13 13 14 14 15 16 17 17 18 19 19 20 21 22 22 23 24 25 25
Wind_Direction
345 346 349 356 7 354 21 7 299 290 286 284 284 271 261 261 257 253 248 242 231 231 229 225 221 221 225 232 237 243 241 242 242 272 42 60 62 55 52 44 41 44 48 50 49 54 62 66 64
342 342 345 357 12 5 352 294 289 293 291 286 279 264 259 266 266 261 256 250 238 233 231 227 225 227 230 231 236 248 249 247 255 267 299 5 30 31 25 21 14 12 10 7 2 10 25 37 42
341 338 347 358 27 0 312 297 286 288 290 286 277 267 267 267 261 255 253 246 236 233 229 227 227 229 231 231 234 251 260 255 261 265 278 307 337 345 352 354 349 343 339 330 326 326 319 305 293
338 343 0 21 18 289 278 283 284 285 284 284 279 273 267 265 263 255 251 241 232 233 229 226 227 229 232 234 241 253 259 256 259 261 264 277 302 317 326 330 328 326 326 323 316 308 295 283 275
336 352 23 20 350 298 285 287 290 282 278 282 279 272 270 267 262 256 248 240 235 232 226 224 226 231 236 239 247 253 254 252 257 263 267 270 283 300 305 307 308 313 314 312 310 304 291 282 271
332 2 35 359 319 290 289 293 292 276 274 277 277 276 275 270 263 256 246 237 233 228 225 227 230 235 239 243 246 248 249 250 257 262 266 270 277 283 291 294 294 298 301 304 301 302 293 288 275
333 354 39 340 294 290 282 288 286 282 278 277 274 273 272 264 259 253 246 238 233 229 228 229 231 235 239 241 245 246 246 249 253 258 263 269 276 282 288 293 293 291 292 293 290 289 287 287 280
343 5 86 319 290 281 282 291 289 283 282 279 276 273 267 258 255 249 246 242 235 233 231 232 232 235 237 239 243 245 246 247 251 254 260 267 275 282 285 288 293 296 295 293 288 282 283 282 282
357 67 45 289 266 274 283 291 293 293 293 285 276 273 269 261 254 247 246 241 237 234 233 232 234 236 237 236 240 244 245 245 248 251 258 266 275 284 280 281 286 293 296 296 294 287 279 279 279
315 46 313 265 260 271 283 290 294 294 290 285 279 270 263 257 254 247 247 241 238 237 232 233 236 239 239 236 238 242 245 243 247 250 254 262 270 281 280 281 285 289 290 289 293 295 285 281 279
299 272 267 278 283 287 295 300 299 296 290 285 283 275 270 261 257 250 246 245 241 238 235 238 238 239 238 240 240 242 245 245 248 250 254 263 273 281 279 279 282 286 294 296 295 296 293 280 280
312 303 300 301 306 313 315 309 304 301 294 292 286 280 270 262 256 252 246 245 244 238 235 234 233 235 237 240 242 242 245 249 247 250 254 261 276 281 280 276 280 291 299 305 303 300 296 291 285
312 315 309 310 320 325 325 321 313 304 302 296 288 282 272 265 258 249 245 242 239 236 232 231 233 234 236 239 242 244 246 248 248 250 253 264 278 284 282 280 291 304 309 312 308 307 308 306 302
312 303 300 311 323 324 326 325 322 316 307 296 289 284 275 261 255 250 247 240 237 236 231 235 235 232 234 237 242 244 247 248 248 252 258 268 272 274 277 288 296 301 308 313 310 313 315 314 310
307 314 309 307 320 325 326 324 325 323 315 305 300 291 280 266 255 250 247 240 236 234 233 236 233 232 234 237 239 243 245 249 248 255 262 263 263 264 269 287 299 307 311 312 314 315 312 313 316
315 316 312 316 320 321 321 324 323 321 318 313 308 299 288 273 258 250 248 242 237 235 235 233 231 232 234 236 239 242 243 245 248 254 259 257 253 253 263 279 296 311 317 317 317 316 314 317 321
334 325 321 322 320 320 322 324 321 323 324 321 316 310 298 281 263 254 250 241 237 234 235 233 231 232 233 234 238 240 240 241 246 250 255 252 243 242 252 266 293 318 321 321 326 329 334 333 331
318 321 313 310 311 317 319 322 323 327 331 328 324 318 308 293 274 261 249 238 233 231 230 227 227 231 229 231 233 235 236 237 240 248 250 242 233 232 239 260 288 313 324 330 338 348 350 347 340
286 290 291 292 301 310 315 320 327 330 332 333 332 326 317 299 283 262 244 234 229 229 227 223 223 223 226 231 231 228 230 233 233 238 236 234 232 229 238 259 280 309 333 342 347 353 355 354 349
279 283 290 297 303 310 318 324 323 330 337 339 336 333 326 314 288 265 239 225 222 223 221 221 223 226 229 230 228 227 231 231 221 224 224 221 224 226 235 251 271 306 335 341 349 356 1 360 353
276 281 288 297 303 308 319 323 327 334 340 341 342 345 342 328 306 267 225 214 217 218 216 218 221 220 221 224 224 226 224 215 216 215 214 213 214 222 230 245 267 298 324 345 354 357 357 355 350
272 277 284 289 293 296 308 309 326 330 340 345 344 350 356 353 338 300 237 218 212 208 209 213 216 216 217 221 218 214 214 214 214 213 212 210 210 219 224 244 272 297 325 340 347 346 344 343 342
266 272 280 282 282 279 287 304 314 325 336 345 347 349 357 4 0 346 229 205 201 199 200 206 210 210 211 211 210 212 214 214 216 212 212 212 212 217 225 248 264 283 306 324 332 333 334 335 336
268 273 279 286 289 285 282 300 305 321 330 340 344 348 356 2 1 8 74 187 190 185 190 196 199 205 207 207 208 212 214 216 217 215 220 222 221 220 230 242 256 273 293 309 319 323 326 327 329
265 272 286 295 305 309 327 270 292 320 328 334 337 342 352 0 7 23 53 168 180 183 191 195 197 205 212 211 215 217 218 224 219 218 220 224 225 228 237 247 256 268 285 299 309 314 318 319 320
259 264 275 289 304 314 305 276 283 315 321 327 333 335 340 349 6 29 45 144 187 193 201 206 206 211 214 217 218 219 221 224 225 223 221 226 228 234 243 250 259 271 283 293 300 305 309 311 313
252 259 263 280 295 298 292 279 264 297 311 323 332 332 331 338 353 18 41 73 142 186 203 212 212 215 218 220 225 225 225 228 229 225 227 234 236 241 250 257 266 276 284 289 295 300 302 305 308
243 258 260 264 280 288 295 292 288 295 309 321 326 327 322 319 323 334 349 357 181 187 195 206 214 218 221 221 223 226 230 230 230 232 237 241 244 248 255 265 271 277 283 288 292 296 298 300 303
235 247 258 262 269 277 290 294 292 297 306 313 316 314 311 304 300 294 291 285 258 235 218 213 215 220 223 223 225 230 232 236 240 242 246 249 252 255 261 267 273 278 283 287 291 293 295 297 299
236 240 252 262 267 270 282 289 291 302 305 300 305 306 300 297 289 283 276 273 268 260 245 235 230 232 234 234 234 237 241 244 247 250 253 256 258 262 266 269 274 278 281 285 288 291 293 295 296
Height
5896 5896 5895 5895 5896 5893 5890 5893 5894 5892 5891 5890 5890 5889 5888 5887 5886 5888 5887 5888 5890 5891 5892 5894 5895 5896 5897 5897 5898 5898 5898 5898 5898 5899 5898 5898 5898 5898 5898 5898 5898 5898 5898 5897 5897 5897 5897 5897 5897
5896 5895 5895 5895 5895 5892 5892 5892 5892 5891 5890 5889 5888 5887 5886 5885 5886 5886 5886 5887 5889 5890 5892 5893 5894 5895 5896 5897 5897 5898 5898 5898 5898 5898 5899 5899 5899 5899 5898 5898 5898 5898 5898 5897 5897 5897 5897 5897 5897
5895 5894 5894 5894 5893 5894 5894 5893 5891 5890 5888 5887 5886 5885 5884 5885 5884 5884 5884 5886 5887 5889 5890 5891 5893 5894 5895 5896 5897 5897 5898 5898 5898 5898 5898 5899 5898 5898 5898 5898 5898 5898 5898 5897 5897 5897 5897 5897 5897
5894 5894 5894 5893 5892 5894 5894 5892 5889 5887 5885 5884 5883 5882 5881 5881 5881 5882 5882 5884 5886 5887 5888 5890 5892 5893 5894 5895 5896 5897 5897 5897 5898 5898 5898 5898 5898 5898 5898 5898 5898 5898 5898 5897 5897 5897 5897 5897 5897
5893 5893 5892 5891 5892 5893 5892 5890 5887 5886 5883 5882 5881 5878 5878 5878 5880 5880 5880 5882 5883 5885 5887 5888 5890 5892 5893 5894 5895 5896 5896 5897 5897 5898 5897 5898 5898 5898 5898 5898 5897 5897 5897 5897 5897 5897 5897 5897 5897
5892 5892 5891 5892 5894 5893 5891 5888 5886 5883 5881 5879 5878 5875 5875 5877 5878 5878 5878 5880 5881 5884 5885 5887 5888 5890 5891 5893 5894 5895 5896 5896 5897 5897 5897 5897 5897 5897 5897 5897 5897 5897 5897 5897 5897 5896 5896 5896 5896
5891 5890 5890 5893 5895 5893 5889 5886 5884 5882 5879 5878 5876 5874 5873 5874 5876 5876 5876 5877 5879 5881 5883 5885 5886 5888 5890 5891 5892 5893 5894 5895 5896 5896 5896 5896 5896 5896 5896 5896 5896 5896 5896 5896 5896 5896 5896 5896 5896
5889 5890 5889 5893 5894 5892 5887 5884 5882 5879 5876 5875 5874 5871 5869 5870 5873 5873 5873 5874 5877 5879 5881 5883 5884 5886 5888 5889 5891 5892 5893 5894 5894 5895 5895 5895 5895 5895 5895 5895 5895 5895 5895 5895 5895 5895 5895 5895 5895
5888 5889 5889 5892 5891 5889 5885 5882 5880 5877 5874 5871 5870 5869 5867 5867 5871 5871 5870 5871 5873 5876 5878 5880 5882 5884 5886 5887 5889 5890 5891 5892 5893 5894 5894 5894 5894 5894 5894 5894 5894 5894 5894 5894 5894 5894 5894 5894 5894
5887 5887 5888 5887 5887 5885 5882 5879 5877 5875 5871 5867 5866 5863 5863 5865 5867 5868 5868 5869 5871 5873 5874 5877 5879 5881 5884 5885 5887 5888 5889 5891 5892 5892 5893 5893 5893 5894 5894 5894 5893 5893 5893 5893 5893 5893 5892 5892 5892
5885 5886 5885 5884 5883 5881 5878 5876 5874 5872 5867 5863 5861 5858 5859 5862 5863 5864 5864 5865 5867 5869 5872 5874 5876 5878 5881 5883 5885 5887 5888 5889 5890 5891 5892 5892 5892 5892 5893 5893 5893 5892 5892 5892 5892 5892 5891 5891 5891
5883 5883 5882 5881 5880 5878 5876 5873 5871 5868 5864 5861 5859 5857 5856 5858 5859 5860 5860 5862 5863 5865 5867 5870 5873 5875 5878 5881 5882 5884 5885 5887 5888 5889 5890 5891 5891 5891 5892 5892 5892 5892 5891 5891 5891 5891 5891 5890 5890
5882 5881 5880 5879 5877 5875 5873 5870 5868 5865 5861 5858 5856 5853 5852 5853 5854 5854 5855 5857 5858 5859 5860 5864 5869 5872 5875 5878 5880 5882 5884 5885 5887 5888 5889 5890 5890 5890 5890 5891 5891 5891 5890 5890 5890 5890 5890 5890 5889
5880 5878 5877 5876 5874 5872 5870 5867 5864 5860 5857 5855 5852 5850 5848 5847 5848 5849 5851 5852 5853 5854 5855 5861 5865 5869 5872 5875 5877 5880 5882 5883 5884 5886 5887 5888 5889 5889 5890 5890 5890 5890 5890 5889 5889 5889 5889 5889 5888
5877 5876 5874 5873 5871 5869 5868 5865 5861 5857 5853 5850 5848 5845 5843 5842 5843 5844 5846 5847 5849 5852 5854 5857 5861 5865 5868 5871 5874 5877 5879 5881 5882 5884 5885 5887 5887 5888 5888 5888 5888 5889 5888 5888 5888 5888 5888 5888 5887
5874 5874 5872 5870 5869 5867 5867 5863 5859 5854 5851 5847 5844 5842 5840 5839 5839 5840 5841 5843 5845 5849 5851 5854 5857 5861 5865 5868 5871 5874 5877 5879 5880 5882 5883 5884 5885 5886 5887 5887 5887 5887 5887 5887 5887 5887 5887 5887 5886
5873 5872 5870 5869 5867 5866 5864 5861 5856 5852 5848 5845 5842 5839 5837 5836 5836 5837 5838 5839 5842 5844 5847 5850 5854 5858 5861 5865 5868 5871 5874 5876 5878 5880 5881 5882 5883 5884 5885 5886 5886 5886 5886 5886 5886 5886 5885 5885 5885
5873 5873 5871 5869 5867 5865 5862 5859 5855 5851 5847 5844 5840 5837 5835 5834 5833 5833 5834 5836 5838 5841 5843 5847 5851 5854 5858 5862 5865 5869 5871 5874 5876 5877 5879 5880 5882 5883 5884 5885 5885 5886 5886 5886 5885 5885 5885 5884 5884
5872 5872 5871 5869 5866 5864 5860 5857 5853 5849 5845 5843 5839 5836 5833 5831 5830 5830 5831 5833 5836 5838 5841 5845 5849 5852 5856 5860 5863 5866 5869 5872 5874 5875 5877 5879 5880 5882 5883 5884 5884 5885 5885 5885 5885 5884 5884 5884 5883
5869 5869 5868 5866 5863 5861 5858 5854 5851 5847 5844 5842 5839 5835 5832 5829 5828 5827 5828 5830 5834 5836 5839 5843 5847 5851 5854 5858 5861 5864 5867 5869 5872 5874 5876 5877 5879 5880 5882 5883 5883 5884 5884 5884 5884 5883 5883 5883 5883
5867 5866 5865 5864 5861 5859 5856 5853 5849 5847 5844 5842 5838 5835 5831 5829 5828 5826 5827 5830 5833 5835 5838 5841 5845 5849 5852 5855 5858 5862 5865 5868 5870 5872 5874 5876 5878 5879 5880 5882 5882 5883 5883 5883 5883 5883 5883 5882 5882
5864 5863 5862 5861 5859 5857 5855 5852 5849 5846 5844 5841 5838 5836 5832 5830 5829 5827 5828 5830 5832 5834 5837 5840 5844 5847 5850 5854 5857 5861 5864 5866 5869 5871 5873 5875 5877 5878 5879 5881 5881 5882 5882 5882 5882 5882 5882 5881 5881
5860 5860 5859 5857 5855 5852 5851 5850 5848 5845 5844 5842 5839 5837 5834 5831 5830 5828 5828 5829 5832 5834 5837 5840 5843 5846 5849 5853 5856 5860 5862 5865 5868 5870 5872 5874 5875 5877 5878 5879 5880 5881 5881 5881 5881 5881 5881 5880 5880
5858 5857 5856 5854 5851 5847 5847 5849 5847 5845 5842 5841 5840 5837 5835 5833 5831 5829 5829 5830 5832 5834 5838 5840 5843 5846 5849 5853 5856 5858 5861 5864 5866 5868 5870 5872 5874 5875 5877 5878 5879 5880 5880 5880 5880 5880 5879 5879 5878
5855 5855 5854 5851 5848 5844 5845 5847 5847 5844 5843 5841 5840 5838 5836 5835 5833 5831 5830 5831 5833 5835 5838 5841 5844 5846 5849 5852 5855 5857 5860 5862 5865 5867 5869 5870 5872 5874 5875 5876 5878 5878 5879 5878 5878 5878 5878 5877 5876
5852 5852 5852 5850 5848 5845 5843 5844 5844 5843 5843 5842 5840 5839 5838 5837 5835 5834 5833 5833 5834 5837 5839 5841 5844 5846 5849 5851 5854 5856 5859 5861 5863 5865 5867 5869 5871 5872 5874 5875 5876 5876 5877 5876 5876 5876 5875 5875 5874
5848 5849 5849 5848 5846 5845 5842 5840 5840 5841 5841 5840 5840 5839 5838 5837 5836 5836 5835 5835 5836 5838 5839 5841 5844 5846 5849 5851 5853 5855 5857 5859 5861 5863 5865 5867 5869 5870 5872 5873 5873 5874 5874 5874 5874 5873 5873 5872 5871
5845 5846 5846 5845 5844 5843 5840 5838 5837 5838 5838 5839 5839 5838 5838 5837 5837 5837 5836 5837 5838 5839 5840 5841 5843 5845 5847 5849 5852 5853 5855 5858 5860 5861 5863 5865 5866 5868 5869 5870 5870 5871 5871 5871 5870 5870 5869 5868 5867
5840 5842 5842 5842 5842 5841 5839 5838 5834 5835 5836 5837 5838 5838 5837 5837 5837 5837 5837 5837 5838 5839 5840 5841 5843 5845 5846 5848 5850 5852 5854 5856 5857 5859 5861 5862 5863 5865 5865 5866 5867 5867 5867 5867 5866 5866 5865 5864 5863
5835 5837 5838 5839 5839 5839 5838 5838 5833 5833 5834 5835 5836 5836 5836 5836 5836 5836 5837 5837 5838 5839 5839 5840 5842 5843 5845 5846 5848 5850 5851 5853 5854 5856 5857 5859 5860 5861 5861 5862 5862 5862 5862 5862 5861 5861 5860 5859 5857